Wind_Speed
14 12 11 11 11 11 10 9 8 7 5 4 3 3 3 4 6 7 9 10 12 13 14 16 17 18 19 20 21 21 22 23 23 24 24 25 25 25 25 25 25 25 25 25
12 11 11 11 11 10 10 9 8 7 6 5 4 4 5 6 7 8 10 11 13 14 15 16 17 18 19 20 20 21 22 23 23 24 25 25 25 26 26 26 26 26 26 26
12 12 12 11 11 10 10 9 8 8 7 6 6 6 7 8 9 10 11 13 14 15 15 16 17 19 20 20 21 22 22 23 24 24 25 25 25 25 26 26 26 26 26 26
13 13 13 11 10 10 10 10 9 8 8 8 8 9 9 10 11 12 13 14 15 16 17 17 18 19 20 21 22 22 23 23 24 24 25 25 25 25 26 26 26 26 26 27
14 13 11 11 11 11 11 11 10 10 10 10 11 11 11 12 13 13 14 15 16 17 18 18 19 20 20 21 22 22 23 23 24 24 25 25 26 26 25 26 26 26 26 26
14 14 13 13 11 12 13 13 12 12 12 12 13 13 12 13 14 15 15 16 17 18 19 19 20 21 21 22 23 23 24 24 25 25 25 26 26 26 25 25 26 26 26 26
16 16 16 13 12 14 15 14 13 14 14 14 15 15 15 15 16 16 17 18 18 19 20 20 21 22 22 23 24 24 25 25 26 26 26 26 26 27 26 26 25 25 26 25
18 19 18 15 16 16 16 15 16 16 16 16 16 16 17 17 18 18 18 19 19 20 21 22 23 23 24 24 25 26 26 27 27 27 27 27 27 27 27 26 26 26 25 25
21 21 19 18 18 18 18 18 18 18 18 18 18 19 19 19 19 19 20 20 21 22 22 23 24 24 25 26 27 27 28 28 28 28 28 28 27 27 27 27 26 26 25 25
23 22 21 21 21 21 21 20 20 20 20 20 20 20 20 20 21 21 21 22 23 24 24 25 25 26 27 28 29 29 30 30 30 29 29 29 28 28 28 27 26 26 25 25
25 24 24 23 23 23 23 23 23 22 22 22 22 22 22 22 22 22 23 24 25 25 26 27 27 28 29 30 32 32 32 32 32 31 31 30 29 29 29 28 28 27 26 25
27 27 27 26 25 25 25 25 25 24 24 24 24 24 24 24 24 25 25 26 26 27 28 29 30 31 32 33 34 34 34 33 33 32 31 31 30 29 29 28 28 28 27 26
31 31 30 28 28 28 28 27 27 27 26 26 26 26 26 26 26 27 28 28 29 30 31 32 33 34 35 35 35 35 34 34 33 32 31 30 30 29 28 28 28 28 28 28
35 34 33 32 31 31 30 30 30 29 29 29 29 29 29 29 29 30 31 31 32 32 34 35 35 36 37 37 36 36 35 34 33 32 31 31 30 30 29 29 28 28 28 29
38 38 37 36 35 34 34 33 33 32 32 32 32 33 33 33 33 33 34 34 34 35 36 37 38 38 38 38 37 36 35 34 32 32 31 30 30 30 30 30 29 29 29 29
42 42 42 40 38 38 38 37 37 37 36 36 36 36 36 36 36 36 37 37 37 38 39 39 40 40 39 38 38 36 35 33 32 31 30 30 30 30 30 30 30 30 31 31
46 46 45 43 42 42 42 42 42 41 40 40 40 40 40 39 39 40 40 40 40 40 41 41 41 41 40 39 38 36 34 33 32 32 31 31 31 31 32 32 32 32 32 33
49 48 48 48 47 46 46 45 45 44 43 43 43 43 43 43 43 43 43 43 42 42 42 43 42 42 41 39 37 35 34 33 33 33 33 33 33 33 34 34 34 34 33 34
51 51 51 51 50 49 50 50 49 48 48 47 47 47 47 47 46 46 46 45 45 44 44 44 43 42 41 38 36 35 35 34 34 34 34 34 34 35 35 35 35 35 36 36
52 53 54 54 53 53 52 53 52 52 51 51 51 51 50 50 49 49 48 47 46 46 46 45 43 42 39 37 36 35 35 35 35 35 35 36 36 36 37 37 38 38 38 39
52 53 54 54 55 55 55 55 55 55 54 54 54 53 53 52 51 50 49 48 47 47 46 45 43 40 38 37 36 36 36 37 37 37 38 38 38 39 39 40 40 41 41 42
52 53 55 55 56 56 56 57 57 57 57 56 56 55 54 53 53 52 50 49 48 47 46 44 42 40 38 38 37 38 38 39 39 39 40 40 41 42 42 43 44 45 46 46
51 52 54 55 56 57 57 57 57 58 58 58 57 56 56 55 54 53 51 50 49 47 45 43 41 40 39 38 39 39 40 41 41 42 42 43 44 45 46 47 48 49 50 51
49 50 51 53 55 56 56 56 57 57 57 57 57 57 56 55 54 53 51 49 47 45 43 42 40 40 39 40 40 41 42 43 44 44 45 47 48 49 50 51 52 53 54 55
46 47 48 49 51 52 53 53 54 54 55 55 55 55 54 53 52 50 48 46 45 43 42 41 40 40 40 41 42 43 44 45 46 47 49 50 51 52 54 55 56 57 58 59
45 45 45 46 47 48 48 49 49 50 51 51 51 51 50 49 48 46 45 43 42 41 41 40 40 41 42 43 44 45 46 48 49 50 52 53 54 55 57 58 59 60 61 61
42 43 43 43 44 45 45 45 45 46 46 46 46 46 45 45 44 43 42 41 41 41 41 41 41 42 43 44 45 47 49 50 51 52 53 55 56 58 59 60 61 61 62 63
Wind_Direction
211 212 204 202 204 203 203 207 212 215 216 223 241 268 295 315 327 333 338 341 343 345 346 347 349 351 352 353 353 354 354 355 355 356 358 359 359 360 360 360 359 359 359 358
207 207 206 206 205 205 207 211 218 225 231 241 254 272 289 304 315 323 328 332 335 337 340 342 343 345 346 347 348 349 350 350 351 351 353 354 355 357 357 358 358 358 358 357
204 209 209 210 210 212 214 218 225 233 240 249 261 275 287 298 307 314 320 324 327 331 333 335 337 339 340 341 343 344 345 347 348 349 350 351 352 353 354 356 357 357 358 358
212 215 218 214 214 219 223 227 231 238 248 257 266 274 284 293 301 307 313 317 321 325 327 329 331 333 335 336 338 339 341 343 344 346 347 348 349 350 352 353 354 355 357 358
219 221 222 219 220 229 231 234 240 247 254 261 268 275 285 292 298 304 309 313 317 320 322 325 327 329 330 331 332 334 335 337 340 342 344 345 347 348 349 350 351 353 354 356
228 232 234 229 226 237 240 243 246 252 259 264 271 278 285 290 295 300 305 309 313 316 318 321 323 325 326 327 328 329 330 332 334 336 338 340 342 344 346 347 349 350 352 353
236 238 241 240 239 244 247 249 251 256 262 267 273 281 285 289 293 298 302 306 310 313 315 317 320 321 322 323 324 325 326 328 329 331 333 335 337 339 341 342 344 346 348 350
240 243 245 245 248 252 256 258 258 261 264 269 274 279 283 287 292 296 299 303 306 309 312 314 316 317 318 319 321 322 323 324 325 326 328 330 331 333 335 337 338 340 343 345
244 247 251 251 252 257 259 260 261 264 266 270 274 278 282 286 290 293 297 300 303 306 309 311 313 314 314 315 316 318 319 319 320 322 323 324 326 327 329 331 333 334 336 339
249 250 252 254 255 257 260 262 263 265 268 271 274 278 281 285 288 292 295 298 301 304 306 309 311 312 312 312 313 314 315 315 316 317 318 319 320 321 322 324 327 329 331 333
251 253 254 255 257 259 261 263 265 267 269 272 275 277 280 283 286 290 293 297 299 302 305 307 309 310 311 311 311 312 312 311 312 313 314 315 315 316 317 319 320 323 325 327
252 253 255 256 259 261 262 264 266 268 270 272 275 277 279 282 285 288 292 295 297 300 302 305 307 309 309 310 310 310 310 309 309 310 310 311 312 312 313 314 316 317 319 321
253 255 257 259 260 262 264 265 267 269 271 273 274 277 279 281 284 287 290 293 295 297 300 303 305 306 308 308 308 308 308 308 307 307 307 308 309 310 310 310 311 311 312 314
253 256 257 259 261 262 264 266 268 269 271 273 275 277 279 281 284 286 289 291 294 296 298 301 303 304 306 307 306 306 306 306 305 304 305 305 306 307 308 308 307 307 307 308
253 255 257 258 260 262 264 266 267 269 271 273 275 277 279 281 283 286 288 291 293 295 297 299 301 302 303 304 304 304 304 304 303 303 303 303 304 305 306 306 306 305 304 304
252 254 256 258 259 261 263 265 266 268 270 272 273 276 278 280 283 285 287 290 292 294 296 297 298 299 300 301 301 301 301 302 302 302 302 302 303 304 305 305 304 304 303 302
251 252 254 256 257 259 260 262 264 266 268 270 272 274 276 279 282 284 287 289 292 294 295 296 297 298 298 299 298 298 298 298 299 300 300 301 302 302 303 303 303 302 302 301
251 252 253 254 255 257 259 261 263 265 266 268 270 273 275 278 280 283 286 289 291 293 294 295 296 297 297 296 295 294 294 295 296 298 298 299 300 301 301 301 302 302 301 300
250 250 251 252 253 255 257 259 261 263 265 267 269 272 275 277 280 283 286 288 290 291 292 294 295 295 295 294 292 292 292 294 296 297 298 299 299 300 301 301 301 300 300 299
249 250 250 252 253 254 256 258 260 262 264 266 268 271 273 276 279 282 284 286 288 290 291 293 293 294 293 291 291 291 292 294 296 297 298 299 299 300 300 300 300 300 299 299
250 250 250 251 252 253 254 256 258 260 262 265 267 270 272 275 278 280 283 285 287 288 290 291 292 291 290 290 290 291 293 295 296 297 298 299 299 300 300 300 299 299 298 298
249 249 250 250 251 252 254 255 257 259 262 264 267 269 272 274 277 279 281 283 285 287 288 289 289 288 288 288 289 291 293 295 297 297 298 299 300 300 300 300 300 299 299 298
249 249 249 250 250 252 253 255 257 259 261 263 266 268 270 273 275 278 280 282 283 285 286 286 286 286 287 288 289 291 293 295 296 298 299 299 300 300 300 300 300 300 300 299
249 249 250 250 250 251 253 254 256 258 260 262 265 267 269 272 274 276 278 280 281 282 283 284 284 285 286 288 290 292 294 295 297 298 299 300 300 301 301 301 301 301 301 300
250 249 250 250 251 251 252 254 255 257 259 262 264 266 268 270 272 274 276 277 278 279 281 282 282 284 286 288 290 292 294 296 297 298 299 300 301 302 302 302 302 302 302 301
249 250 250 250 251 251 252 253 255 256 258 260 263 265 267 269 271 272 273 275 276 278 279 280 282 284 287 289 291 293 295 296 298 299 300 301 302 302 303 303 303 303 303 302
249 249 249 250 250 251 251 252 254 256 258 260 262 264 266 267 269 270 272 273 275 276 278 280 283 285 287 290 292 293 295 296 298 299 300 302 303 304 304 305 305 305 304 303
Height
5844 5845 5847 5848 5850 5851 5853 5854 5854 5855 5855 5856 5856 5856 5855 5855 5854 5852 5851 5849 5847 5844 5841 5838 5835 5832 5828 5824 5820 5816 5812 5808 5803 5799 5794 5789 5784 5779 5774 5769 5763 5758 5753 5748
5843 5844 5846 5847 5849 5850 5851 5852 5853 5854 5854 5854 5854 5854 5854 5853 5852 5851 5849 5847 5845 5843 5840 5837 5834 5830 5827 5823 5819 5815 5811 5807 5802 5798 5793 5788 5783 5778 5773 5768 5763 5757 5752 5747
5842 5843 5844 5846 5848 5849 5849 5850 5851 5852 5853 5852 5853 5852 5852 5851 5850 5849 5847 5845 5843 5841 5838 5835 5832 5829 5825 5821 5818 5814 5810 5805 5801 5796 5792 5787 5782 5777 5772 5767 5762 5757 5752 5746
5840 5842 5843 5846 5845 5847 5847 5848 5849 5850 5850 5850 5850 5850 5849 5848 5847 5846 5844 5843 5840 5838 5835 5833 5829 5826 5823 5819 5815 5812 5808 5804 5799 5795 5791 5786 5781 5776 5771 5766 5762 5756 5751 5746
5838 5839 5840 5842 5843 5844 5845 5846 5846 5847 5847 5847 5847 5847 5846 5845 5844 5843 5841 5839 5837 5835 5832 5830 5827 5823 5820 5817 5813 5809 5805 5801 5797 5793 5789 5785 5780 5775 5770 5765 5761 5756 5751 5746
5836 5837 5838 5840 5841 5841 5843 5843 5844 5844 5844 5844 5843 5844 5844 5842 5841 5839 5838 5836 5834 5831 5829 5826 5823 5820 5817 5813 5810 5806 5802 5799 5795 5791 5787 5782 5778 5774 5769 5764 5759 5755 5750 5745
5833 5833 5835 5836 5837 5838 5840 5841 5840 5840 5840 5840 5840 5840 5839 5838 5837 5835 5834 5832 5830 5828 5825 5823 5820 5817 5813 5810 5806 5803 5799 5795 5792 5788 5784 5780 5776 5771 5767 5763 5758 5753 5749 5744
5829 5830 5833 5833 5833 5834 5835 5835 5835 5836 5836 5836 5835 5835 5834 5833 5832 5831 5829 5828 5826 5824 5821 5818 5815 5813 5809 5806 5803 5799 5795 5791 5788 5784 5780 5777 5773 5769 5764 5760 5756 5752 5747 5743
5825 5827 5828 5828 5829 5829 5830 5830 5831 5831 5831 5831 5830 5830 5829 5828 5827 5826 5825 5823 5821 5819 5816 5814 5811 5808 5805 5801 5798 5794 5791 5787 5784 5780 5776 5773 5769 5765 5761 5757 5753 5749 5745 5741
5819 5820 5822 5822 5823 5824 5824 5825 5825 5826 5826 5825 5825 5825 5824 5823 5822 5821 5819 5818 5816 5813 5811 5809 5806 5803 5799 5796 5792 5789 5786 5782 5779 5775 5772 5768 5764 5761 5757 5753 5750 5746 5742 5739
5813 5815 5815 5817 5817 5818 5819 5819 5819 5820 5820 5819 5819 5819 5818 5817 5816 5815 5814 5812 5810 5808 5805 5803 5800 5797 5794 5790 5786 5783 5779 5776 5772 5769 5766 5762 5759 5755 5752 5748 5745 5742 5738 5735
5807 5808 5808 5810 5811 5812 5812 5813 5813 5813 5813 5813 5813 5812 5812 5811 5810 5809 5807 5805 5803 5801 5799 5796 5793 5790 5787 5783 5779 5776 5772 5769 5765 5762 5759 5756 5753 5750 5746 5743 5740 5736 5733 5730
5798 5799 5800 5802 5804 5804 5805 5805 5805 5806 5806 5806 5805 5805 5805 5804 5803 5802 5800 5798 5797 5794 5792 5789 5786 5783 5779 5776 5772 5768 5765 5761 5758 5755 5752 5749 5746 5743 5741 5738 5734 5731 5728 5725
5789 5790 5792 5794 5795 5795 5796 5797 5797 5797 5798 5798 5797 5797 5797 5796 5795 5794 5792 5791 5789 5787 5784 5781 5778 5775 5771 5768 5764 5760 5757 5753 5750 5747 5744 5741 5739 5736 5733 5731 5729 5726 5723 5719
5779 5780 5782 5784 5785 5786 5787 5787 5788 5789 5789 5789 5789 5788 5788 5787 5786 5785 5783 5782 5780 5778 5775 5772 5769 5766 5763 5759 5755 5752 5749 5746 5742 5739 5737 5734 5731 5728 5726 5723 5721 5719 5716 5713
5767 5768 5770 5773 5775 5776 5776 5777 5778 5779 5779 5779 5779 5779 5778 5777 5777 5775 5774 5772 5770 5768 5765 5762 5759 5756 5753 5750 5746 5743 5740 5737 5734 5731 5729 5726 5723 5721 5718 5715 5713 5710 5708 5705
5754 5756 5758 5760 5762 5763 5764 5765 5766 5768 5768 5769 5768 5768 5768 5767 5766 5765 5763 5762 5760 5758 5755 5752 5749 5746 5743 5740 5737 5734 5731 5728 5726 5723 5721 5718 5715 5712 5710 5707 5705 5702 5699 5697
5739 5742 5744 5746 5748 5750 5752 5753 5754 5756 5757 5757 5757 5756 5756 5756 5755 5754 5752 5750 5749 5747 5744 5741 5738 5735 5732 5729 5726 5724 5722 5719 5717 5714 5712 5709 5706 5704 5701 5698 5696 5693 5690 5688
5724 5726 5728 5731 5734 5736 5738 5739 5741 5742 5743 5744 5744 5744 5744 5743 5743 5742 5740 5739 5737 5735 5732 5729 5726 5724 5721 5718 5716 5714 5712 5709 5707 5704 5702 5699 5697 5694 5691 5688 5686 5683 5680 5678
5707 5710 5713 5715 5718 5721 5723 5724 5726 5728 5729 5730 5730 5730 5730 5730 5729 5729 5728 5726 5724 5722 5720 5717 5715 5712 5710 5707 5705 5703 5701 5699 5697 5694 5692 5689 5686 5683 5680 5677 5675 5672 5669 5666
5691 5694 5697 5700 5702 5705 5707 5709 5711 5713 5714 5715 5716 5716 5716 5716 5716 5715 5715 5714 5712 5709 5707 5705 5703 5700 5698 5696 5694 5692 5690 5688 5686 5683 5680 5678 5675 5672 5669 5666 5663 5660 5656 5653
5674 5678 5680 5683 5686 5688 5691 5693 5695 5697 5699 5700 5701 5702 5702 5702 5702 5701 5701 5700 5699 5697 5695 5693 5691 5689 5687 5685 5683 5681 5679 5676 5674 5671 5668 5665 5662 5659 5656 5652 5649 5646 5642 5639
5658 5661 5664 5667 5670 5672 5675 5678 5680 5682 5683 5685 5686 5687 5687 5688 5688 5688 5687 5687 5685 5683 5682 5680 5679 5677 5675 5673 5671 5669 5667 5664 5661 5658 5655 5652 5648 5645 5641 5638 5634 5630 5626 5622
5642 5645 5648 5651 5654 5657 5660 5662 5664 5666 5668 5670 5671 5672 5673 5673 5674 5673 5673 5672 5671 5670 5669 5668 5666 5665 5663 5661 5659 5656 5654 5651 5648 5645 5641 5638 5634 5630 5626 5621 5617 5612 5608 5603
5627 5630 5633 5636 5639 5642 5644 5647 5649 5651 5653 5655 5656 5657 5658 5659 5659 5659 5659 5659 5658 5657 5656 5655 5653 5652 5650 5648 5646 5643 5641 5638 5634 5631 5627 5623 5618 5614 5609 5604 5599 5593 5588 5583
5613 5616 5619 5622 5625 5627 5630 5632 5635 5637 5639 5640 5642 5643 5644 5644 5645 5645 5645 5645 5645 5644 5643 5642 5641 5639 5637 5635 5633 5630 5627 5623 5620 5615 5611 5607 5602 5597 5591 5585 5579 5573 5567 5561
5599 5602 5605 5608 5611 5613 5616 5618 5621 5623 5625 5626 5628 5629 5630 5631 5632 5632 5632 5632 5632 5631 5630 5629 5628 5626 5624 5622 5619 5616 5612 5608 5604 5600 5595 5590 5585 5579 5573 5566 5560 5553 5546 5540